Weather History for KLNS - June, 2014

Change the Weather History Date:

Sunday, June 8, 2014

  Actual Average Record
Temperature  
Mean Temperature 68 °F -  
Max Temperature 82 °F 79 °F 95 °F (2011)
Min Temperature 55 °F 57 °F 45 °F (1977)
Cooling Degree Days 4    
Growing Degree Days 18 (Base 50)    
Moisture  
Dew Point 58 °F    
Average Humidity 68    
Maximum Humidity 90    
Minimum Humidity 44    
Precipitation  
Precipitation 0.11 in - - ()
Sea Level Pressure  
Sea Level Pressure 29.91 in    
Wind  
Wind Speed 4 mph (SSE)    
Max Wind Speed 15 mph    
Max Gust Speed -    
Visibility 9 miles    
Events Rain , Thunderstorm    
Averages and records for this station are not official NWS values.
T = Trace of Precipitation, MM = Missing Value Source: NWS Daily Summary

Daily Weather History Graph

Daily Weather History Graph

Search for Another Location

Airport or City:

Trip Planner

Search our weather history database for the weather conditions in past years. The results will help you decide how hot, cold, wet, or windy it might be!

Date:

Astronomy

Jun. 08, 2014 Rise Set
Actual Time 5:35 AM EDT 8:32 PM EDT
Civil Twilight 5:03 AM EDT 9:05 PM EDT
Nautical Twilight 4:22 AM EDT 9:46 PM EDT
Astronomical Twilight 3:34 AM EDT 10:34 PM EDT
Moon 3:48 PM EDT (6/8) 2:27 AM EDT (6/8)
Length of Visible Light 16h 02m
Length of Day
14h 56m
Waxing Gibbous, 77% of the Moon is Illuminated
Jun 8
Waxing Gibbous
Jun 13
Full
Jun 19
Last Quarter
Jun 27
New
Jul 5
First Quarter

Hourly Weather History & Observations

Time (EDT) Temp. Heat Index Dew Point Humidity Pressure Visibility Wind Dir Wind Speed Gust Speed Precip Events Conditions
12:53 AM 64.0 °F - 54.0 °F 70% 29.96 in 10.0 mi Calm Calm - N/A   Clear
1:53 AM 61.0 °F - 54.0 °F 78% 29.96 in 10.0 mi Calm Calm - N/A   Clear
2:53 AM 62.1 °F - 54.0 °F 75% 29.96 in 10.0 mi Calm Calm - N/A   Clear
3:53 AM 59.0 °F - 54.0 °F 83% 29.95 in 10.0 mi Calm Calm - N/A   Clear
4:53 AM 55.9 °F - 53.1 °F 90% 29.95 in 9.0 mi Calm Calm - N/A   Clear
5:53 AM 57.0 °F - 54.0 °F 89% 29.96 in 7.0 mi East 3.5 mph - N/A   Clear
6:53 AM 59.0 °F - 55.0 °F 87% 29.96 in 6.0 mi Calm Calm - N/A   Clear
7:53 AM 64.0 °F - 57.0 °F 78% 29.97 in 9.0 mi Calm Calm - N/A   Clear
8:53 AM 69.1 °F - 57.9 °F 68% 29.97 in 10.0 mi Variable 4.6 mph - N/A   Clear
9:53 AM 75.0 °F - 59.0 °F 57% 29.96 in 10.0 mi South 5.8 mph - N/A   Clear
10:53 AM 79.0 °F - 57.0 °F 47% 29.95 in 10.0 mi South 9.2 mph - N/A   Clear
11:53 AM 78.1 °F - 55.9 °F 46% 29.94 in 10.0 mi SSW 10.4 mph - N/A   Clear
12:53 PM 80.1 °F 80.6 °F 57.9 °F 47% 29.93 in 10.0 mi South 8.1 mph - N/A   Clear
1:53 PM 82.0 °F 82.0 °F 57.9 °F 44% 29.90 in 10.0 mi SSW 9.2 mph - N/A   Scattered Clouds
2:53 PM 80.1 °F 80.4 °F 57.0 °F 45% 29.89 in 10.0 mi SSE 15.0 mph - N/A   Clear
3:53 PM 79.0 °F - 57.0 °F 47% 29.88 in 10.0 mi South 13.8 mph - N/A   Clear
4:53 PM 77.0 °F - 57.0 °F 50% 29.86 in 10.0 mi SSE 8.1 mph - N/A   Clear
5:53 PM 77.0 °F - 57.0 °F 50% 29.85 in 10.0 mi South 5.8 mph - N/A   Mostly Cloudy
6:53 PM 75.9 °F - 57.0 °F 52% 29.85 in 10.0 mi SSE 10.4 mph - N/A   Partly Cloudy
7:53 PM 75.9 °F - 57.9 °F 54% 29.85 in 10.0 mi SSE 10.4 mph - N/A   Overcast
8:53 PM 71.1 °F - 62.1 °F 73% 29.86 in 10.0 mi SE 6.9 mph - 0.01 in Rain Light Rain
9:11 PM 69.1 °F - 63.0 °F 81% 29.87 in 4.0 mi SE 6.9 mph - 0.05 in Rain , Thunderstorm Heavy Thunderstorms and Rain
9:26 PM 68.0 °F - 63.0 °F 84% 29.88 in 10.0 mi ESE 4.6 mph - 0.06 in Rain Light Rain
9:37 PM 68.0 °F - 63.0 °F 84% 29.88 in 9.0 mi SE 4.6 mph - 0.06 in Rain , Thunderstorm Light Rain
9:53 PM 68.0 °F - 63.0 °F 84% 29.87 in 10.0 mi East 4.6 mph - 0.06 in Rain Light Rain
10:53 PM 66.9 °F - 63.0 °F 87% 29.87 in 10.0 mi NE 5.8 mph - 0.04 in Rain Light Rain
11:53 PM 66.0 °F - 63.0 °F 90% 29.86 in 10.0 mi East 5.8 mph - 0.00 in   Overcast